Other Surface Observations
Issued by NWS

Home | Current Version | Previous Version | Text Only | Print | Product List | Glossary On
Versions: 1 2 3 4 5 6 7 8 9 10 11 12 13 14 15 16 17 18 19 20 21 22 23 24 25 26 27 28 29 30 31 32 33 34 35 36 37 38 39 40 41 42 43 44 45 46 47 48 49 50
000
SXUS52 KTAE 250718
OSOTAE
OSOTAE
North Florida/South Alabama/Southwest Georgia Weather Roundup
National Weather Service Tallahassee Florida
300 AM EDT FRI JUL 25 2014

Note: "fair" indicates few or no clouds below 12,000 feet with no
significant weather and/or obstructions to visibility.

!FLZ017-115-028-034-025-250800
...North Florida...

CITY           SKY/WX    TMP DP  RH WIND       PRES   REMARKS
TALLAHASSEE    CLEAR     76  73  91 CALM      30.01S
APALACHICOLA   CLEAR     81  75  82 SW8       29.99F
PERRY          CLEAR     73  73 100 CALM      30.01S
CROSS CITY       N/A     76  73  91 CALM      30.01S
HOMERVILLE     FAIR      77  75  94 W3        30.01S
JACKSONVILLE   PTCLDY    76  73  91 CALM      30.00S
$$

!FLZ112-006-005-002-011-250800
...Florida Panhandle...

CITY           SKY/WX    TMP DP  RH WIND       PRES   REMARKS
MARIANNA       CLEAR     75  74  96 CALM      30.00S
BONIFAY        FAIR      72  71  97 CALM      30.00F FOG
PANAMA CITY NW FAIR      76  73  91 CALM      29.99F
TYNDALL AFB    PTCLDY    82  76  84 W6        30.01S
TYND DRONE APT NOT AVBL
DE FUNIAK SPR  FAIR      73  73  98 CALM      30.00F
EGLIN AFB      PTCLDY    80  75  84 CALM      30.00S
DESTIN         PTCLDY    83  76  79 SW5       29.99F HX  91
HURLBURT       CLEAR     82  72  72 SW3       29.98F
CRESTVIEW      CLEAR     74  72  93 CALM      30.01F
PENSACOLA      CLEAR     78  74  87 SW3       29.99F
$$

!ALZ063-066-250800
...South Alabama...

CITY           SKY/WX    TMP DP  RH WIND       PRES   REMARKS
DOTHAN         CLEAR     75  73  93 W3        30.03F
OZARK CAIRNS   CLEAR     74  73  95 SW2       30.00F
FT RUCKER HELI CLEAR     74  72  93 NW3       29.99F
RUCKER HELI 3  FAIR      74  73  93 W2        30.03S
RUCKER HELI 2  FAIR      75  73  93 VRB3      30.00F
FLORALA APT    CLEAR     74  71  91 CALM      30.01F
ANDALUSIA      PTCLDY    78  73  84 NW3       30.00F
TROY           PTCLDY    75  73  93 SW5       30.00F
EUFALA         MOCLDY    77  72  84 CALM      29.97F
MOBILE         CLEAR     74  74 100 CALM      30.00S
$$

!GAZ120>161-250800
...Southwest and South Central Georgia...

CITY           SKY/WX    TMP DP  RH WIND       PRES   REMARKS
THOMASVILLE    FAIR      77  77 100 W3        30.02S
BAINBRIDGE     CLEAR     79  77  94 SW5       30.00F
MOODY AFB      CLEAR     77  74  91 W7        30.00S
VALDOSTA       CLEAR     78  73  84 CALM      30.01R
MOULTRIE       CLEAR     75  73  94 SW3       30.03R
BLAKELY        CLEAR     77  73  88 CALM      30.00F
ALBANY         CLEAR     77  73  87 SW3       30.02R
TIFTON         FAIR      76  74  92 W5        30.01S
FITZGERALD     FAIR      78  75  91 W3        30.03R
CORDELE        PTSUNNY   79  74  84 SW6       30.00F
AMERICUS       FAIR      75  72  88 SW3       30.01S
$$

!GMZ750-755-770-775-250800
...Coastal and Buoy Obs...

STATION/POSITION TIME  TEMP    WIND        PRES    VSBY  WAVE
                       AIR SEA DIR/SP/G                  HT/PER
                 (UTC) (F)     (DEG/KT/KT) (MB)    (MI)  (FT/S)
KEATON BEACH     0700   84     250/ 13/ 15 1016.1F
CEDAR KEY        0700   83     270/  5/  8 1016.8F
C TOWER          0700   82     240/ 11/ 12 1015.9F
APALACHICOLA BUO 0700   84 85  240/  8/ 10 1016.2F         1/ 3
PANAMA CITY BUOY 0629   83 85  230/  8/ 10 1015.9F         2/ 9
MOBILE BUOY      0556   82 84  250/ 12/ 14 1015.5F
ORANGE BCH AL BU 0700   79 83  250/ 14/ 19 1015.4F         2/ 3
$$



USA.gov is the U.S. government's official web portal to all federal, state and local government web resources and services.